When you browse on this site, cookies collect data to enhance your experience and personalize the content and advertising you see.
Visit our Privacy Policy to learn more. By continuing to use the site, you agree to this use of cookies and data.
  • In Denmark
  • List of Countries
  • For 7 days
  • Water Temperature
  • Weather Map
  • Weather Widgets
  • user-avatar
    Login

    Hourly Weather Giumri

    Today, 23 August, Friday

    Time Temperature Precipitation Wind Pressure Humidity
    00:00 +17°C° 0 mm 3 mps 634 mmHg 48%
    01:00 +16°C° 0 mm 3 mps 634 mmHg 49%
    02:00 +16°C° 0 mm 3 mps 634 mmHg 49%
    03:00 +16°C° 0 mm 3 mps 634 mmHg 52%
    04:00 +14°C° 0 mm 3 mps 634 mmHg 54%
    05:00 +14°C° 0 mm 3 mps 634 mmHg 56%
    06:00 +14°C° 0 mm 3 mps 634 mmHg 58%
    07:00 +17°C° 0 mm 3 mps 635 mmHg 53%
    08:00 +20°C° 0 mm 3 mps 636 mmHg 48%
    09:00 +23°C° 0 mm 4 mps 636 mmHg 41%
    10:00 +25°C° 0 mm 4 mps 637 mmHg 38%
    11:00 +27°C° 0 mm 4 mps 637 mmHg 36%
    12:00 +28°C° 0 mm 5 mps 637 mmHg 33%
    13:00 +28°C° 0 mm 5 mps 637 mmHg 34%
    14:00 +29°C° 0 mm 5 mps 637 mmHg 34%
    15:00 +29°C° 0 mm 6 mps 636 mmHg 35%
    16:00 +27°C° 0 mm 6 mps 636 mmHg 39%
    17:00 +26°C° 0 mm 6 mps 636 mmHg 43%
    18:00 +24°C° 0 mm 6 mps 635 mmHg 47%
    19:00 +22°C° 0 mm 5 mps 635 mmHg 51%
    20:00 +20°C° 0 mm 4 mps 635 mmHg 55%
    21:00 +18°C° 0 mm 3 mps 635 mmHg 59%
    22:00 +18°C° 0 mm 3 mps 635 mmHg 60%
    23:00 +17°C° 0 mm 3 mps 635 mmHg 61%

    Tomorrow, 24 August, Saturday

    Time Temperature Precipitation Wind Pressure Humidity
    00:00 +17°C° 0 mm 2 mps 635 mmHg 62%
    01:00 +17°C° 0 mm 2 mps 635 mmHg 62%
    02:00 +16°C° 0 mm 2 mps 635 mmHg 63%
    03:00 +16°C° 0 mm 2 mps 635 mmHg 64%
    04:00 +16°C° 0 mm 2 mps 635 mmHg 65%
    05:00 +15°C° 0 mm 2 mps 635 mmHg 65%
    06:00 +15°C° 0 mm 2 mps 635 mmHg 65%
    07:00 +18°C° 0 mm 2 mps 636 mmHg 58%
    08:00 +21°C° 0 mm 2 mps 637 mmHg 50%
    09:00 +25°C° 0 mm 2 mps 638 mmHg 42%
    10:00 +26°C° 0 mm 2 mps 638 mmHg 39%
    11:00 +28°C° 0 mm 2 mps 638 mmHg 36%
    12:00 +29°C° 0 mm 2 mps 638 mmHg 32%
    13:00 +29°C° 0.1 mm 3 mps 638 mmHg 34%
    14:00 +28°C° 0.1 mm 3 mps 638 mmHg 36%
    15:00 +28°C° 0.1 mm 4 mps 637 mmHg 38%
    16:00 +25°C° 1.4 mm 4 mps 637 mmHg 49%
    17:00 +21°C° 1.4 mm 5 mps 636 mmHg 59%
    18:00 +17°C° 1.4 mm 6 mps 636 mmHg 70%
    19:00 +17°C° 0.6 mm 5 mps 636 mmHg 72%
    20:00 +18°C° 0.6 mm 3 mps 636 mmHg 75%
    21:00 +17°C° 0.6 mm 2 mps 637 mmHg 78%
    22:00 +18°C° 0 mm 1 mps 637 mmHg 78%
    23:00 +18°C° 0 mm 1 mps 637 mmHg 78%

    Day after tomorrow, 25 August, Sunday

    Time Temperature Precipitation Wind Pressure Humidity
    00:00 +16°C° 0 mm 1 mps 636 mmHg 78%
    01:00 +16°C° 0 mm 1 mps 636 mmHg 78%
    02:00 +16°C° 0 mm 1 mps 636 mmHg 77%
    03:00 +16°C° 0 mm 1 mps 636 mmHg 77%
    04:00 +16°C° 0 mm 1 mps 636 mmHg 77%
    05:00 +16°C° 0 mm 1 mps 636 mmHg 76%
    06:00 +16°C° 0 mm 1 mps 635 mmHg 75%
    07:00 +19°C° 0 mm 1 mps 636 mmHg 67%
    08:00 +21°C° 0 mm 1 mps 637 mmHg 59%
    09:00 +23°C° 0 mm 1 mps 638 mmHg 51%
    10:00 +25°C° 0 mm 1 mps 638 mmHg 45%
    11:00 +27°C° 0 mm 1 mps 638 mmHg 40%
    12:00 +28°C° 0 mm 1 mps 638 mmHg 35%
    13:00 +29°C° 0 mm 1 mps 638 mmHg 32%
    14:00 +29°C° 0 mm 1 mps 638 mmHg 30%
    15:00 +30°C° 0 mm 2 mps 638 mmHg 28%
    16:00 +29°C° 0 mm 3 mps 637 mmHg 35%
    17:00 +27°C° 0 mm 4 mps 637 mmHg 41%
    18:00 +26°C° 0 mm 5 mps 636 mmHg 48%
    19:00 +23°C° 0 mm 4 mps 636 mmHg 52%
    20:00 +22°C° 0 mm 3 mps 636 mmHg 56%
    21:00 +20°C° 0 mm 3 mps 636 mmHg 61%
    22:00 +20°C° 0 mm 2 mps 636 mmHg 61%
    23:00 +19°C° 0 mm 2 mps 636 mmHg 62%

    26 August, Monday

    Time Temperature Precipitation Wind Pressure Humidity
    00:00 +19°C° 0 mm 2 mps 636 mmHg 62%
    01:00 +18°C° 0 mm 2 mps 636 mmHg 64%
    02:00 +18°C° 0 mm 2 mps 636 mmHg 65%
    03:00 +18°C° 0 mm 2 mps 636 mmHg 67%
    04:00 +17°C° 0 mm 2 mps 636 mmHg 69%
    05:00 +17°C° 0 mm 2 mps 636 mmHg 70%
    06:00 +17°C° 0 mm 2 mps 636 mmHg 72%
    07:00 +19°C° 0 mm 2 mps 636 mmHg 64%
    08:00 +21°C° 0 mm 2 mps 637 mmHg 57%
    09:00 +25°C° 0 mm 2 mps 637 mmHg 49%
    10:00 +26°C° 0 mm 2 mps 638 mmHg 45%
    11:00 +27°C° 0 mm 2 mps 638 mmHg 42%
    12:00 +29°C° 0 mm 3 mps 638 mmHg 38%
    13:00 +29°C° 0.1 mm 3 mps 637 mmHg 39%
    14:00 +29°C° 0.1 mm 3 mps 637 mmHg 40%
    15:00 +29°C° 0.1 mm 4 mps 637 mmHg 40%
    16:00 +27°C° 1.3 mm 4 mps 636 mmHg 49%
    17:00 +23°C° 1.3 mm 4 mps 635 mmHg 57%
    18:00 +21°C° 1.3 mm 4 mps 635 mmHg 65%
    19:00 +20°C° 0.4 mm 4 mps 635 mmHg 67%
    20:00 +19°C° 0.4 mm 3 mps 636 mmHg 69%
    21:00 +19°C° 0.4 mm 3 mps 637 mmHg 71%
    22:00 +18°C° 0.4 mm 3 mps 636 mmHg 73%
    23:00 +17°C° 0.4 mm 2 mps 636 mmHg 75%

    27 August, Tuesday

    Time Temperature Precipitation Wind Pressure Humidity
    00:00 +17°C° 0.4 mm 2 mps 636 mmHg 78%
    01:00 +16°C° 0.1 mm 2 mps 636 mmHg 78%
    02:00 +16°C° 0.1 mm 2 mps 636 mmHg 79%
    03:00 +16°C° 0.1 mm 2 mps 635 mmHg 79%
    04:00 +15°C° 0 mm 2 mps 635 mmHg 80%
    05:00 +15°C° 0 mm 2 mps 635 mmHg 81%
    06:00 +15°C° 0 mm 2 mps 635 mmHg 82%
    07:00 +17°C° 0 mm 2 mps 636 mmHg 76%
    08:00 +19°C° 0 mm 2 mps 636 mmHg 70%
    09:00 +20°C° 0 mm 3 mps 637 mmHg 65%
    10:00 +22°C° 0 mm 3 mps 637 mmHg 60%
    11:00 +24°C° 0 mm 3 mps 637 mmHg 55%
    12:00 +25°C° 0 mm 3 mps 637 mmHg 51%
    13:00 +26°C° 0 mm 3 mps 637 mmHg 49%
    14:00 +27°C° 0 mm 3 mps 636 mmHg 47%
    15:00 +27°C° 0 mm 4 mps 636 mmHg 46%
    16:00 +26°C° 0.1 mm 4 mps 635 mmHg 52%
    17:00 +23°C° 0.1 mm 4 mps 635 mmHg 59%
    18:00 +21°C° 0.1 mm 5 mps 634 mmHg 66%
    19:00 +20°C° 0.1 mm 4 mps 634 mmHg 70%
    20:00 +19°C° 0.1 mm 4 mps 634 mmHg 74%
    21:00 +17°C° 0.1 mm 3 mps 634 mmHg 78%
    22:00 +17°C° 0.1 mm 3 mps 634 mmHg 79%
    23:00 +17°C° 0.1 mm 3 mps 634 mmHg 80%

    28 August, Wednesday

    Time Temperature Precipitation Wind Pressure Humidity
    00:00 +16°C° 0.1 mm 3 mps 634 mmHg 80%
    01:00 +16°C° 0 mm 2 mps 634 mmHg 81%
    02:00 +16°C° 0 mm 2 mps 634 mmHg 83%
    03:00 +15°C° 0 mm 2 mps 633 mmHg 84%
    04:00 +15°C° 0 mm 2 mps 634 mmHg 84%
    05:00 +15°C° 0 mm 2 mps 634 mmHg 85%
    06:00 +15°C° 0 mm 2 mps 634 mmHg 86%
    07:00 +17°C° 0 mm 2 mps 634 mmHg 78%
    08:00 +19°C° 0 mm 2 mps 635 mmHg 70%
    09:00 +20°C° 0 mm 2 mps 636 mmHg 62%
    10:00 +23°C° 0.2 mm 2 mps 636 mmHg 56%
    11:00 +25°C° 0.2 mm 2 mps 636 mmHg 50%
    12:00 +26°C° 0.2 mm 2 mps 637 mmHg 44%
    13:00 +27°C° 0.3 mm 2 mps 636 mmHg 43%
    14:00 +27°C° 0.3 mm 3 mps 636 mmHg 42%
    15:00 +27°C° 0.3 mm 4 mps 636 mmHg 41%
    16:00 +26°C° 0.2 mm 4 mps 636 mmHg 45%
    17:00 +25°C° 0.2 mm 4 mps 636 mmHg 49%
    18:00 +23°C° 0.2 mm 4 mps 635 mmHg 53%
    19:00 +22°C° 0 mm 3 mps 635 mmHg 58%
    20:00 +20°C° 0 mm 3 mps 635 mmHg 63%
    21:00 +19°C° 0 mm 3 mps 635 mmHg 68%
    22:00 +18°C° 0 mm 3 mps 636 mmHg 71%
    23:00 +17°C° 0 mm 2 mps 636 mmHg 73%
    Show more